Weather History for Bartlesville, OK

Change the Weather History Date:

Monday, January 6, 2014

  Actual Average Record
Temperature  
Mean Temperature 1 °F -  
Max Temperature 15 °F 45 °F - (-1)
Min Temperature -13 °F 23 °F - (-1)
Degree Days  
Heating Degree Days 64    
Moisture  
Dew Point -9 °F    
Average Humidity 65    
Maximum Humidity 87    
Minimum Humidity 37    
Precipitation  
Precipitation 0.00 in - - ()
Sea Level Pressure  
Sea Level Pressure 30.67 in    
Wind  
Wind Speed 2 mph (West)    
Max Wind Speed 10 mph    
Max Gust Speed 17 mph    
Visibility 10 miles    
Events      
Averages and records for this station are not official NWS values.
T = Trace of Precipitation, MM = Missing Value Source: NWS Daily Summary

Daily Weather History Graph

Daily Weather History Graph

Search for Another Location

Airport:

Trip Planner

Search our weather history database for the weather conditions in past years. The results will help you decide how hot, cold, wet, or windy it might be!

Date:

Astronomy

Jan. 06, 2014 Rise Set
Actual Time 7:37 AM CST 5:23 PM CST
Civil Twilight 7:08 AM CST 5:51 PM CST
Nautical Twilight 6:36 AM CST 6:23 PM CST
Astronomical Twilight 6:04 AM CST 6:55 PM CST
Moon 11:03 AM CST (1/6) 11:46 PM CST (1/6)
Length of Visible Light 10h 43m
Length of Day
9h 45m
Waxing Crescent, 35% of the Moon is Illuminated
Jan 6
Waxing Crescent
Jan 7
First Quarter
Jan 15
Full
Jan 23
Last Quarter
Jan 30
New

Hourly Weather History & Observations

Time (CST) Temp. Windchill Dew Point Humidity Pressure Visibility Wind Dir Wind Speed Gust Speed Precip Events Conditions
12:53 AM 1.0 °F - -6.0 °F 72% 30.65 in 10.0 mi Calm Calm - N/A   Clear
1:53 AM -0.0 °F - -7.1 °F 72% 30.67 in 10.0 mi Calm Calm - N/A   Partly Cloudy
2:53 AM 1.9 °F -5.6 °F -7.1 °F 66% 30.68 in 10.0 mi Variable 3.5 mph - N/A   Clear
3:53 AM 1.0 °F - -9.0 °F 63% 30.69 in 10.0 mi Calm Calm - N/A   Clear
4:53 AM -2.0 °F - -9.9 °F 69% 30.70 in 10.0 mi Calm Calm - N/A   Clear
5:53 AM -5.1 °F - -11.0 °F 76% 30.71 in 10.0 mi Calm Calm - N/A   Clear
6:53 AM -11.0 °F - -14.1 °F 86% 30.71 in 10.0 mi Calm Calm - N/A   Clear
7:53 AM -13.0 °F - -18.0 °F 78% 30.74 in 10.0 mi Calm Calm - N/A   Clear
8:53 AM -6.0 °F - -9.9 °F 83% 30.76 in 10.0 mi Calm Calm - N/A   Clear
9:53 AM 6.1 °F -2.8 °F -9.9 °F 48% 30.77 in 10.0 mi Variable 4.6 mph - N/A   Clear
10:53 AM 8.1 °F -5.3 °F -9.9 °F 44% 30.75 in 10.0 mi West 9.2 mph - N/A   Clear
11:53 AM 10.9 °F 0.2 °F -8.0 °F 42% 30.72 in 10.0 mi NW 6.9 mph - N/A   Clear
1:53 PM 14.0 °F 5.1 °F -7.1 °F 39% 30.66 in 10.0 mi West 5.8 mph - N/A   Clear
2:53 PM 15.1 °F 2.5 °F -7.1 °F 37% 30.64 in 10.0 mi West 10.4 mph 17.3 mph N/A   Clear
3:53 PM 15.1 °F 6.4 °F -7.1 °F 37% 30.62 in 10.0 mi West 5.8 mph - N/A   Clear
4:53 PM 12.9 °F 5.2 °F -7.1 °F 41% 30.62 in 10.0 mi West 4.6 mph - N/A   Clear
5:53 PM 8.1 °F 1.4 °F -6.0 °F 53% 30.62 in 10.0 mi West 3.5 mph - N/A   Clear
7:53 PM -2.9 °F - -7.1 °F 82% 30.63 in 10.0 mi Calm Calm - N/A   Clear
8:53 PM -4.0 °F - -8.0 °F 83% 30.61 in 10.0 mi Calm Calm - N/A   Clear
9:53 PM -5.1 °F - -9.0 °F 83% 30.59 in 10.0 mi Calm Calm - N/A   Clear
10:53 PM -5.1 °F - -8.0 °F 87% 30.57 in 10.0 mi Calm Calm - N/A   Clear
11:53 PM -5.1 °F - -9.0 °F 83% 30.54 in 10.0 mi Calm Calm - N/A   Clear